Regional Weather Roundup
Issued by NWS

Home | Current Version | Previous Version | Text Only | Print | Product List | Glossary Off
Versions: 1 2 3 4 5 6 7 8 9 10 11 12 13 14 15 16 17 18 19 20 21 22 23 24 25 26 27 28 29 30 31 32 33 34 35 36 37 38 39 40 41 42 43 44 45 46 47 48 49 50

000
ASUS43 KMPX 121401
RWRMN
WEATHER ROUNDUP FOR MINNESOTA
NATIONAL WEATHER SERVICE TWIN CITIES/CHANHASSEN MN
900 AM CDT SAT JUL 12 2014


NOTE: "FAIR" INDICATES FEW OR NO CLOUDS BELOW 12,000 FEET WITH NO
SIGNIFICANT WEATHER AND/OR OBSTRUCTIONS TO VISIBILITY. N/A MEANS
CURRENT SKY AND/OR WEATHER CONDITIONS ARE NOT AVAILABLE.

MNZ060>063-068>070-121500-
   Twin Cities Metro

CITY           SKY/WX    TMP DP  RH WIND       PRES   REMARKS
TWIN CITIES    CLOUDY    72  70  93 CALM      29.99F FOG
ST PAUL        CLOUDY    71  69  93 CALM      29.99F FOG
CRYSTAL        LGT RAIN  73  69  87 NW5       29.98S FOG
BLAINE         CLOUDY    73  72  94 CALM      30.00S
LAKEVILLE      CLOUDY    70  68  94 CALM      30.00S FOG
EDEN PRAIRIE   CLOUDY    72  70  93 NW3       29.98F FOG
SOUTH ST PAUL  CLOUDY    71  69  90 CALM      29.99F
LAKE ELMO      PTSUNNY   70  70 100 CALM      30.00F FOG
$$
MNZ001>005-007-008-013>017-022>024-027-028-121500-
   Northwest Minnesota

CITY           SKY/WX    TMP DP  RH WIND       PRES   REMARKS
BEMIDJI        MOSUNNY   67  57  70 CALM      30.04S
HALLOCK        SUNNY     64  55  72 CALM      30.01F
ROSEAU         SUNNY     68  59  73 S5        30.01S
WARROAD        SUNNY     66  59  77 SE5       30.02S
THIEF RVR FALL PTSUNNY   64  57  77 CALM      30.04R
CROOKSTON      PTSUNNY   64  57  77 CALM      30.04S
FOSSTON        MOSUNNY   64  57  77 CALM      30.05S
MOORHEAD       PTSUNNY   66  63  88 CALM      30.06R
PARK RAPIDS    PTSUNNY   68  57  68 SE5       30.05R
$$
MNZ006-009>011-018-025>026-121500-
   North Central Minnesota

CITY           SKY/WX    TMP DP  RH WIND       PRES   REMARKS
BAUDETTE       SUNNY     67  55  65 CALM      30.03S
FLAG ISLAND    SUNNY     68  57  68 S7        29.99F
INTL FALLS     MOSUNNY   68  55  63 N5        30.02S
BIG FORK       SUNNY     68  59  73 VRB1      30.04S
LONGVILLE      MOSUNNY   66  61  82 CALM      30.03F
GRAND RAPIDS   SUNNY     68  57  68 CALM      30.04S
CRANE LAKE     SUNNY     63  57  82 CALM      30.03F
ORR            MOSUNNY   64  55  72 CALM      30.01S
COOK           MOSUNNY   66  57  72 W3        30.03S
$$
MNZ012-019>021-037-121500-
   Northeast Minnesota

CITY           SKY/WX    TMP DP  RH WIND       PRES   REMARKS
DULUTH         SUNNY     70  58  65 N7        30.02S
ELY            SUNNY     66  55  68 N3        30.02S
HIBBING        SUNNY     71  57  61 CALM      30.03R
EVELETH        SUNNY     70  54  56 CALM      30.04R
DULUTH HARBOR  MOSUNNY   68  61  77 CALM      30.01S
TWO HARBORS    SUNNY     72  57  60 CALM      29.99S
SILVER BAY     SUNNY     72  59  64 NW3       29.99S
GRAND MARAIS     N/A     65  53  65 SW5       29.97S
G MARAIS ARPRT SUNNY     66  54  63 N6        30.03S
$$
MNZ029>031-032-039>041-046>048-054>057-064-121500-
   West Central Minnesota

CITY           SKY/WX    TMP DP  RH WIND       PRES   REMARKS
FERGUS FALLS   CLOUDY    66  57  72 CALM      30.05R
WHEATON        LGT RAIN  63  59  88 CALM      30.07R
MORRIS         DRIZZLE   66  63  88 N5        30.03R
ALEXANDRIA     LGT RAIN  66  59  78 CALM      30.07R
WADENA         CLOUDY    66  59  77 CALM      30.04S
GLENWOOD       LGT RAIN  66  61  82 NE7       30.04S
APPLETON       LGT RAIN  70  61  73 N3        30.03R
BENSON         CLOUDY    70  59  68 NE5       30.03R
ORTONVILLE     CLOUDY    66  61  82 N5        30.04R
MADISON        LGT RAIN  70  64  83 NW5       30.03R
WILLMAR        LGT RAIN  70  63  78 E7        30.02S
$$
MNZ033>034-036-042>043-049>051-058-059-121500-
   Central Minnesota

CITY           SKY/WX    TMP DP  RH WIND       PRES   REMARKS
ST CLOUD       CLOUDY    71  62  73 CALM      30.01S
SAUK CENTRE    FAIR      67  59  75 N5        30.04R
PAYNESVILLE    CLOUDY    66  61  81 N7        30.02S HAZE
AITKIN         PTSUNNY   70  61  73 CALM      30.02S
PINE RIVER     PTSUNNY   66  61  82 N3        30.07S
BRAINERD       PTSUNNY   73  60  63 NE3       30.04S
STAPLES        PTSUNNY   66  59  77 CALM      30.04S
LONG PRAIRIE   RAIN      64  61  88 CALM      30.05R
LITTLE FALLS   CLOUDY    66  61  82 CALM      30.03S
LITCHFIELD     CLOUDY    72  70  94 CALM      30.01F
BUFFALO        CLOUDY    70  63  77 N3        30.00F
MAPLE LAKE     CLOUDY    71  70  96 N6        30.01F
$$
MNZ037-044-045-052-053-121500-
   East Central Minnesota

CITY           SKY/WX    TMP DP  RH WIND       PRES   REMARKS
PRINCETON      CLOUDY    70  64  83 N3        30.01F
MORA           PTSUNNY   68  59  73 CALM      30.02F
CAMBRIDGE      PTSUNNY   72  63  73 CALM      29.99S HAZE
RUSH CITY      PTSUNNY   67  66  96 N3        30.01S
MOOSE LAKE     PTSUNNY   68  59  73 NE6       30.00F
HINCKLEY       FAIR      70  63  78 N6        30.01S
CLOQUET        MOSUNNY   70  57  64 N3        30.03S
MCGREGOR       PTSUNNY   68  59  73 CALM      30.03F
$$
MNZ071>073-080-081-089-090-097-098-121500-
   Southwest Minnesota

CITY           SKY/WX    TMP DP  RH WIND       PRES   REMARKS
MONTEVIDEO     DRIZZLE   68  64  88 NE8       30.01S
GRANITE FALLS  CLOUDY    70  69  95 NW6       30.01S
CANBY          CLOUDY    65  63  93 NW3       30.07R
MARSHALL       CLOUDY    66  63  88 NW16      30.01R
REDWOOD FALLS  CLOUDY    73  72  96 N5        29.99R FOG
OLIVIA         TSTM      68  61  77 NW12      30.00R
PIPESTONE      CLOUDY    70  63  78 N7        30.05F
WINDOM         CLOUDY    73  70  88 S5        30.01R FOG
WORTHINGTON    CLOUDY    73  66  78 N5        30.03R
JACKSON        LGT RAIN  72  68  88 W7        30.03R
TRACY          CLOUDY    70  66  86 W9        30.00S
SLAYTON        LGT RAIN  70  67  90 CALM      30.04S
$$
MNZ065>067-074>077-082>085-091>093-121500-
   South Central Minnesota

CITY           SKY/WX    TMP DP  RH WIND       PRES   REMARKS
MANKATO        CLOUDY    72  66  83 S5        30.00S
NEW ULM        CLOUDY    73  73 100 CALM      29.99S FOG
ST JAMES       LGT RAIN  72  70  94 CALM      29.99F
FAIRMONT       CLOUDY    72  68  88 CALM      29.99F
GLENCOE        CLOUDY    71  63  76 CALM      29.99F
FARIBAULT      CLOUDY    75  68  78 CALM      30.01S HAZE
OWATONNA       LGT RAIN  72  70  94 CALM      30.01F
WASECA         RAIN      72  66  83 CALM      30.03S
ALBERT LEA     LGT RAIN  72  70  94 CALM      30.01R
$$
MNZ078>079-086>088-094>096-121500-
   Southeast Minnesota

CITY           SKY/WX    TMP DP  RH WIND       PRES   REMARKS
ROCHESTER      CLOUDY    71  68  90 N6        30.03S FOG
RED WING       CLOUDY    72  70  94 CALM      29.99S FOG
STANTON        CLOUDY    72  69  90 CALM      29.99S FOG
DODGE CENTER   CLOUDY    72  70  94 CALM      30.02F FOG
WINONA         CLOUDY    72  68  88 CALM      30.01F
AUSTIN         LGT RAIN  72  70  94 NW5       30.02R
PRESTON        CLOUDY    70  69  96 N5        30.03S FOG
$$
ABBREVIATIONS USED IN REMARKS
   TC - TEMPERATURES IN CELSIUS
  WCI - WIND CHILL INDEX
   HX - HEAT INDEX
  VSB - VISIBILITY
$$


USA.gov is the U.S. government's official web portal to all federal, state and local government web resources and services.